When you browse on this site, cookies collect data to enhance your experience and personalize the content and advertising you see.
Visit our Privacy Policy to learn more. By continuing to use the site, you agree to this use of cookies and data.
  • En España
  • Lista de países
  • Para 7 días
  • Temperatura del agua
  • El tiempo en el mapa
  • Informadores
  • user-avatar
    Iniciar sesión

    Tiempo cada hora Soma Bey

    Hoy, 23 Octubre, Miércoles

    Tiempo Temperatura Precipitaciones Viento Presión Humedad
    00:00 +26°C° 0 mm 3 mps 746 mmHg 38%
    01:00 +25°C° 0 mm 3 mps 746 mmHg 41%
    02:00 +24°C° 0 mm 3 mps 746 mmHg 43%
    03:00 +24°C° 0 mm 3 mps 746 mmHg 43%
    04:00 +24°C° 0 mm 3 mps 746 mmHg 43%
    05:00 +24°C° 0 mm 3 mps 746 mmHg 43%
    06:00 +26°C° 0 mm 3 mps 747 mmHg 39%
    07:00 +28°C° 0 mm 2 mps 747 mmHg 35%
    08:00 +30°C° 0 mm 2 mps 747 mmHg 30%
    09:00 +31°C° 0 mm 3 mps 747 mmHg 29%
    10:00 +34°C° 0 mm 4 mps 747 mmHg 28%
    11:00 +35°C° 0 mm 5 mps 747 mmHg 27%
    12:00 +35°C° 0 mm 5 mps 747 mmHg 30%
    13:00 +34°C° 0 mm 5 mps 746 mmHg 32%
    14:00 +34°C° 0 mm 5 mps 746 mmHg 35%
    15:00 +33°C° 0 mm 4 mps 746 mmHg 39%
    16:00 +30°C° 0 mm 2 mps 746 mmHg 43%
    17:00 +29°C° 0 mm 1 mps 746 mmHg 48%
    18:00 +27°C° 0 mm 1 mps 746 mmHg 53%
    19:00 +26°C° 0 mm 1 mps 747 mmHg 58%
    20:00 +24°C° 0 mm 1 mps 747 mmHg 63%
    21:00 +24°C° 0 mm 1 mps 747 mmHg 62%
    22:00 +24°C° 0 mm 1 mps 747 mmHg 61%
    23:00 +23°C° 0 mm 2 mps 747 mmHg 60%

    Mañana, 24 Octubre, Jueves

    Tiempo Temperatura Precipitaciones Viento Presión Humedad
    00:00 +23°C° 0 mm 2 mps 747 mmHg 59%
    01:00 +22°C° 0 mm 3 mps 747 mmHg 57%
    02:00 +22°C° 0 mm 3 mps 747 mmHg 56%
    03:00 +21°C° 0 mm 3 mps 747 mmHg 54%
    04:00 +21°C° 0 mm 3 mps 747 mmHg 53%
    05:00 +20°C° 0 mm 3 mps 747 mmHg 51%
    06:00 +24°C° 0 mm 2 mps 748 mmHg 42%
    07:00 +26°C° 0 mm 2 mps 748 mmHg 34%
    08:00 +28°C° 0 mm 2 mps 748 mmHg 26%
    09:00 +30°C° 0 mm 3 mps 748 mmHg 24%
    10:00 +31°C° 0 mm 3 mps 748 mmHg 23%
    11:00 +33°C° 0 mm 4 mps 748 mmHg 22%
    12:00 +33°C° 0 mm 5 mps 748 mmHg 23%
    13:00 +33°C° 0 mm 5 mps 747 mmHg 25%
    14:00 +33°C° 0 mm 5 mps 747 mmHg 26%
    15:00 +32°C° 0 mm 5 mps 747 mmHg 30%
    16:00 +29°C° 0 mm 4 mps 747 mmHg 35%
    17:00 +27°C° 0 mm 3 mps 747 mmHg 39%
    18:00 +26°C° 0 mm 2 mps 747 mmHg 47%
    19:00 +24°C° 0 mm 1 mps 748 mmHg 55%
    20:00 +22°C° 0 mm 1 mps 748 mmHg 64%
    21:00 +22°C° 0 mm 1 mps 748 mmHg 62%
    22:00 +21°C° 0 mm 1 mps 748 mmHg 61%
    23:00 +21°C° 0 mm 1 mps 748 mmHg 59%

    Pasado mañana, 25 Octubre, Viernes

    Tiempo Temperatura Precipitaciones Viento Presión Humedad
    00:00 +21°C° 0 mm 1 mps 748 mmHg 57%
    01:00 +21°C° 0 mm 1 mps 748 mmHg 55%
    02:00 +21°C° 0 mm 1 mps 748 mmHg 53%
    03:00 +19°C° 0 mm 2 mps 748 mmHg 53%
    04:00 +19°C° 0 mm 2 mps 748 mmHg 52%
    05:00 +19°C° 0 mm 2 mps 747 mmHg 52%
    06:00 +21°C° 0 mm 2 mps 748 mmHg 45%
    07:00 +25°C° 0 mm 2 mps 748 mmHg 39%
    08:00 +27°C° 0 mm 2 mps 749 mmHg 33%
    09:00 +29°C° 0 mm 3 mps 749 mmHg 29%
    10:00 +30°C° 0 mm 3 mps 749 mmHg 26%
    11:00 +31°C° 0 mm 3 mps 748 mmHg 23%
    12:00 +32°C° 0 mm 4 mps 748 mmHg 24%
    13:00 +32°C° 0 mm 4 mps 748 mmHg 26%
    14:00 +32°C° 0 mm 5 mps 747 mmHg 28%
    15:00 +30°C° 0 mm 4 mps 747 mmHg 35%
    16:00 +28°C° 0 mm 3 mps 747 mmHg 41%
    17:00 +27°C° 0 mm 3 mps 747 mmHg 48%
    18:00 +25°C° 0 mm 2 mps 748 mmHg 54%
    19:00 +24°C° 0 mm 2 mps 748 mmHg 59%
    20:00 +21°C° 0 mm 2 mps 749 mmHg 65%
    21:00 +21°C° 0 mm 2 mps 748 mmHg 64%
    22:00 +21°C° 0 mm 2 mps 748 mmHg 64%
    23:00 +21°C° 0 mm 2 mps 748 mmHg 63%

    26 Octubre, Sábado

    Tiempo Temperatura Precipitaciones Viento Presión Humedad
    00:00 +20°C° 0 mm 2 mps 748 mmHg 62%
    01:00 +20°C° 0 mm 2 mps 748 mmHg 62%
    02:00 +20°C° 0 mm 2 mps 748 mmHg 62%
    03:00 +19°C° 0 mm 2 mps 748 mmHg 61%
    04:00 +19°C° 0 mm 2 mps 748 mmHg 61%
    05:00 +19°C° 0 mm 2 mps 749 mmHg 60%
    06:00 +21°C° 0 mm 2 mps 749 mmHg 53%
    07:00 +24°C° 0 mm 2 mps 749 mmHg 46%
    08:00 +27°C° 0 mm 2 mps 750 mmHg 38%
    09:00 +28°C° 0 mm 3 mps 750 mmHg 35%
    10:00 +30°C° 0 mm 3 mps 749 mmHg 31%
    11:00 +32°C° 0 mm 4 mps 749 mmHg 28%
    12:00 +32°C° 0 mm 5 mps 749 mmHg 31%
    13:00 +32°C° 0 mm 5 mps 748 mmHg 35%
    14:00 +32°C° 0 mm 6 mps 747 mmHg 38%
    15:00 +29°C° 0 mm 6 mps 747 mmHg 42%
    16:00 +28°C° 0 mm 6 mps 747 mmHg 47%
    17:00 +27°C° 0 mm 7 mps 748 mmHg 51%
    18:00 +26°C° 0 mm 6 mps 748 mmHg 54%
    19:00 +24°C° 0 mm 6 mps 748 mmHg 57%
    20:00 +23°C° 0 mm 6 mps 748 mmHg 60%
    21:00 +22°C° 0 mm 6 mps 748 mmHg 61%
    22:00 +22°C° 0 mm 6 mps 748 mmHg 62%
    23:00 +22°C° 0 mm 6 mps 748 mmHg 63%

    27 Octubre, Domingo

    Tiempo Temperatura Precipitaciones Viento Presión Humedad
    00:00 +21°C° 0 mm 5 mps 748 mmHg 66%
    01:00 +20°C° 0 mm 5 mps 748 mmHg 70%
    02:00 +19°C° 0 mm 4 mps 747 mmHg 73%
    03:00 +19°C° 0 mm 4 mps 747 mmHg 75%
    04:00 +18°C° 0 mm 4 mps 748 mmHg 77%
    05:00 +18°C° 0 mm 4 mps 748 mmHg 79%
    06:00 +20°C° 0 mm 4 mps 748 mmHg 69%
    07:00 +22°C° 0 mm 3 mps 748 mmHg 60%
    08:00 +25°C° 0 mm 3 mps 749 mmHg 50%
    09:00 +27°C° 0 mm 3 mps 748 mmHg 48%
    10:00 +28°C° 0 mm 4 mps 748 mmHg 45%
    11:00 +29°C° 0 mm 4 mps 748 mmHg 42%
    12:00 +30°C° 0 mm 5 mps 747 mmHg 42%
    13:00 +30°C° 0 mm 5 mps 747 mmHg 41%
    14:00 +30°C° 0 mm 5 mps 746 mmHg 40%
    15:00 +29°C° 0 mm 5 mps 746 mmHg 45%
    16:00 +28°C° 0 mm 5 mps 746 mmHg 51%
    17:00 +27°C° 0 mm 4 mps 746 mmHg 56%
    18:00 +25°C° 0 mm 4 mps 746 mmHg 62%
    19:00 +23°C° 0 mm 4 mps 747 mmHg 67%
    20:00 +22°C° 0 mm 4 mps 747 mmHg 72%
    21:00 +21°C° 0 mm 4 mps 747 mmHg 72%
    22:00 +21°C° 0 mm 4 mps 747 mmHg 72%
    23:00 +20°C° 0 mm 4 mps 747 mmHg 72%

    28 Octubre, Lunes

    Tiempo Temperatura Precipitaciones Viento Presión Humedad
    00:00 +20°C° 0 mm 4 mps 747 mmHg 69%
    01:00 +20°C° 0 mm 4 mps 747 mmHg 66%
    02:00 +20°C° 0 mm 4 mps 746 mmHg 63%
    03:00 +20°C° 0 mm 4 mps 746 mmHg 65%
    04:00 +20°C° 0 mm 4 mps 747 mmHg 68%
    05:00 +19°C° 0 mm 5 mps 747 mmHg 70%
    06:00 +22°C° 0 mm 5 mps 747 mmHg 60%
    07:00 +25°C° 0 mm 5 mps 747 mmHg 50%
    08:00 +27°C° 0 mm 5 mps 748 mmHg 39%
    09:00 +29°C° 0 mm 6 mps 748 mmHg 36%
    10:00 +30°C° 0 mm 6 mps 748 mmHg 34%
    11:00 +33°C° 0 mm 7 mps 748 mmHg 31%
    12:00 +33°C° 0 mm 7 mps 747 mmHg 32%
    13:00 +33°C° 0 mm 7 mps 746 mmHg 34%
    14:00 +33°C° 0 mm 7 mps 746 mmHg 35%
    15:00 +30°C° 0 mm 6 mps 746 mmHg 42%
    16:00 +29°C° 0 mm 6 mps 746 mmHg 49%
    17:00 +27°C° 0 mm 5 mps 746 mmHg 55%
    18:00 +26°C° 0 mm 5 mps 746 mmHg 57%
    19:00 +23°C° 0 mm 5 mps 747 mmHg 59%
    20:00 +22°C° 0 mm 5 mps 747 mmHg 60%
    21:00 +22°C° 0 mm 5 mps 747 mmHg 57%
    22:00 +21°C° 0 mm 5 mps 747 mmHg 53%
    23:00 +21°C° 0 mm 5 mps 747 mmHg 50%

    29 Octubre, Martes

    Tiempo Temperatura Precipitaciones Viento Presión Humedad
    00:00 +20°C° 0 mm 4 mps 747 mmHg 50%
    01:00 +20°C° 0 mm 4 mps 747 mmHg 50%
    02:00 +19°C° 0 mm 4 mps 747 mmHg 50%
    03:00 +19°C° 0 mm 4 mps 747 mmHg 50%
    04:00 +19°C° 0 mm 4 mps 747 mmHg 51%
    05:00 +19°C° 0 mm 4 mps 747 mmHg 52%
    06:00 +21°C° 0 mm 4 mps 747 mmHg 45%
    07:00 +25°C° 0 mm 5 mps 748 mmHg 37%
    08:00 +27°C° 0 mm 5 mps 748 mmHg 30%
    09:00 +29°C° 0 mm 5 mps 748 mmHg 29%
    10:00 +30°C° 0 mm 6 mps 748 mmHg 27%
    11:00 +33°C° 0 mm 6 mps 748 mmHg 26%
    12:00 +33°C° 0 mm 6 mps 748 mmHg 28%
    13:00 +33°C° 0 mm 6 mps 747 mmHg 29%
    14:00 +33°C° 0 mm 6 mps 747 mmHg 31%
    15:00 +30°C° 0 mm 5 mps 747 mmHg 40%
    16:00 +28°C° 0 mm 4 mps 747 mmHg 50%
    17:00 +26°C° 0 mm 3 mps 747 mmHg 59%
    18:00 +25°C° 0 mm 3 mps 747 mmHg 61%
    19:00 +24°C° 0 mm 3 mps 747 mmHg 64%
    20:00 +22°C° 0 mm 3 mps 747 mmHg 66%
    21:00 +21°C° 0 mm 3 mps 747 mmHg 63%
    22:00 +21°C° 0 mm 4 mps 747 mmHg 61%
    23:00 +21°C° 0 mm 4 mps 747 mmHg 58%
    Mostrar más